Weather History for Omak, WA

Change the Weather History Date:

Sunday, March 30, 2014

  Actual Average Record
Temperature  
Mean Temperature 45 °F 46 °F  
Max Temperature 58 °F 59 °F 75 °F (1939)
Min Temperature 32 °F 34 °F -9 °F (1996)
Degree Days  
Heating Degree Days 20 19  
Month to date heating degree days 728 711  
Since 1 July heating degree days 5718 5572  
Cooling Degree Days 0 0  
Month to date cooling degree days 0 0  
Year to date cooling degree days 0 0  
Moisture  
Dew Point 30 °F    
Average Humidity 59    
Maximum Humidity 82    
Minimum Humidity 35    
Precipitation  
Precipitation T in 0.04 in 0.43 in (1958)
Month to date precipitation 1.16 1.13  
Year to date precipitation 2.98 4.12  
Sea Level Pressure  
Sea Level Pressure 29.84 in    
Wind  
Wind Speed 5 mph (West)    
Max Wind Speed 15 mph    
Max Gust Speed 18 mph    
Visibility 10 miles    
Events Rain    
T = Trace of Precipitation, MM = Missing Value Source: NWS Daily Summary

Daily Weather History Graph

Daily Weather History Graph

Search for Another Location

Airport:

Trip Planner

Search our weather history database for the weather conditions in past years. The results will help you decide how hot, cold, wet, or windy it might be!

Date:

Astronomy

Mar. 30, 2014 Rise Set
Actual Time 6:39 AM PDT 7:25 PM PDT
Civil Twilight 6:08 AM PDT 7:57 PM PDT
Nautical Twilight 5:30 AM PDT 8:35 PM PDT
Astronomical Twilight 4:51 AM PDT 9:15 PM PDT
Moon 6:28 AM PDT (3/30) 7:47 PM PDT (3/30)
Length of Visible Light 13h 49m
Length of Day
12h 45m
New Moon, 0% of the Moon is Illuminated
Mar 30
New Moon
Apr 7
First Quarter
Apr 15
Full
Apr 22
Last Quarter
Apr 28
New

Hourly Weather History & Observations

Time (PDT) Temp. Windchill Dew Point Humidity Pressure Visibility Wind Dir Wind Speed Gust Speed Precip Events Conditions
12:53 AM 37.0 °F 32.4 °F 30.9 °F 79% 29.75 in 10.0 mi SW 5.8 mph - N/A   Clear
1:53 AM 35.1 °F 30.1 °F 30.0 °F 82% 29.76 in 10.0 mi West 5.8 mph - N/A   Clear
2:53 AM 36.0 °F 30.3 °F 30.0 °F 79% 29.76 in 10.0 mi SW 6.9 mph - N/A   Clear
3:53 AM 35.1 °F - 28.9 °F 78% 29.77 in 10.0 mi Calm Calm - N/A   Clear
4:53 AM 35.1 °F 32.2 °F 28.0 °F 76% 29.78 in 10.0 mi West 3.5 mph - N/A   Mostly Cloudy
5:53 AM 33.1 °F 30.0 °F 27.0 °F 78% 29.80 in 10.0 mi West 3.5 mph - N/A   Partly Cloudy
6:53 AM 33.1 °F - 28.0 °F 82% 29.81 in 10.0 mi Calm Calm - N/A   Clear
7:53 AM 35.1 °F - 30.0 °F 82% 29.84 in 10.0 mi Calm Calm - N/A   Clear
8:53 AM 39.9 °F - 30.9 °F 70% 29.84 in 10.0 mi Calm Calm - N/A   Clear
9:53 AM 44.1 °F 41.5 °F 32.0 °F 63% 29.85 in 10.0 mi South 4.6 mph - N/A   Partly Cloudy
10:53 AM 48.0 °F - 33.1 °F 56% 29.84 in 10.0 mi Variable 3.5 mph - N/A   Clear
11:53 AM 50.0 °F - 33.1 °F 52% 29.83 in 10.0 mi South 6.9 mph - N/A   Clear
12:53 PM 54.0 °F - 34.0 °F 47% 29.82 in 10.0 mi SSE 8.1 mph - N/A   Clear
1:53 PM 55.0 °F - 28.0 °F 35% 29.81 in 10.0 mi SSE 9.2 mph - N/A   Clear
2:53 PM 53.1 °F - 30.0 °F 41% 29.83 in 10.0 mi ENE 8.1 mph - N/A   Overcast
3:53 PM 51.1 °F - 28.9 °F 43% 29.84 in 8.0 mi East 4.6 mph - 0.00 in Rain Light Rain
4:53 PM 55.0 °F - 26.1 °F 33% 29.84 in 10.0 mi Variable 4.6 mph - 0.00 in   Partly Cloudy
5:53 PM 55.0 °F - 28.9 °F 37% 29.85 in 10.0 mi NNE 9.2 mph - N/A   Mostly Cloudy
6:53 PM 50.0 °F - 30.0 °F 46% 29.86 in 10.0 mi NNW 6.9 mph - N/A   Clear
7:53 PM 44.1 °F 40.1 °F 30.9 °F 60% 29.89 in 10.0 mi NW 6.9 mph - N/A   Clear
8:53 PM 41.0 °F 35.8 °F 30.9 °F 67% 29.91 in 10.0 mi WNW 8.1 mph - N/A   Clear
9:53 PM 39.0 °F 35.7 °F 30.0 °F 70% 29.93 in 10.0 mi WNW 4.6 mph - N/A   Clear
10:53 PM 37.0 °F 33.3 °F 28.0 °F 70% 29.94 in 10.0 mi WNW 4.6 mph - N/A   Clear
11:53 PM 36.0 °F 30.3 °F 27.0 °F 70% 29.96 in 10.0 mi WNW 6.9 mph - N/A   Clear